[[{"header":{"parameterUnit":"m.s-1","parameterCategory":1,"la1":30.2991,"la2":30.254,"lo1":-89.0895,"lo2":-89.0444,"dy":0.0017,"dx":0.0017,"nx":28,"ny":28,"refTime":"2023-05-23T21:00:00:Z","depth":0,"parameterNumber":2,"parameterNumberName":"U-component_of_WINDS"},"data":[0,0,0,0,0,0,0,0,0,0,0,0,0,0,0,0,0,0,0,0,0,0,0,0,0,0,0,0,0,0,0,0,0,0,0,0,0,0,0,0,0,0,0,0,0,0,0,0,0,0,0,0,0,0,0,0,0,0,-0.1144,-0.1146,0,-0.1308,-0.131,-0.1312,-0.1537,-0.1541,-0.1545,-0.1548,-0.1716,-0.1717,-0.1717,0,0,0,0,0,0,0,0,0,0,0,0,0,-0.1025,-0.1026,-0.1144,-0.1146,-0.1148,-0.1308,-0.131,-0.1313,-0.1537,-0.1541,-0.1546,-0.155,-0.1715,-0.1716,-0.1718,0,0,0,0,0,0,0,0,0,0,0,0,0,-0.1121,-0.1026,-0.1144,-0.1279,-0.1293,-0.1308,-0.131,-0.1313,-0.1536,-0.1541,-0.1547,-0.1552,-0.1715,-0.1716,-0.1718,-0.1612,0,0,-0.1722,-0.1723,0,0,0,0,0,0,0,0,-0.1115,-0.1125,-0.1257,-0.127,-0.1285,-0.1408,-0.133,-0.1413,-0.1534,-0.1443,-0.1549,-0.1555,-0.1609,-0.1619,-0.1638,-0.162,-0.1627,-0.1722,-0.1723,-0.1723,-0.1724,0,0,0,0,0,0,0,-0.1108,-0.112,-0.1209,-0.1259,-0.1276,-0.1332,-0.1352,-0.1347,-0.1492,-0.1452,-0.1469,-0.1485,-0.1618,-0.1636,-0.1643,-0.163,-0.1722,-0.1723,-0.1724,-0.1725,-0.1535,-0.153,0,0,0,0,0,0,-0.1082,-0.1112,-0.1204,-0.1214,-0.1213,-0.1329,-0.1352,-0.1363,-0.1493,-0.1518,-0.148,-0.1495,-0.163,-0.1641,-0.165,-0.1535,-0.1723,-0.1725,-0.1726,-0.1541,-0.1534,-0.1528,0,0,0,0,0,0,-0.1078,-0.1088,-0.1197,-0.1168,-0.1186,-0.1325,-0.1336,-0.1363,-0.1382,-0.1514,-0.1541,-0.1472,-0.1635,-0.1648,-0.162,-0.1544,-0.1725,-0.1727,-0.1548,-0.1539,-0.1531,-0.1303,0,0,0,0,0,0,-0.1074,-0.1085,-0.1046,-0.1165,-0.1187,-0.1164,-0.1332,-0.1362,-0.1383,-0.1404,-0.1513,-0.1537,-0.1641,-0.1617,-0.1621,-0.1549,-0.1728,-0.1555,-0.1544,-0.1534,-0.1318,-0.1287,-0.1261,0,0,0,0,0,-0.1069,-0.0975,-0.1043,-0.1053,-0.1141,-0.1159,-0.1171,-0.1293,-0.1376,-0.1338,-0.1424,-0.1534,-0.1552,-0.1612,-0.1619,-0.1546,-0.1561,-0.1547,-0.1534,-0.133,-0.1293,-0.1262,0,0,0,0,0,0,-0.0843,-0.0993,-0.107,-0.1012,-0.1071,-0.1197,-0.1153,-0.125,-0.1286,-0.1304,-0.1454,-0.1476,-0.1429,-0.1486,-0.155,-0.1451,-0.1573,-0.156,-0.1415,-0.1381,-0.1353,-0.134,-0.1729,0,0,0,0,0,-0.0786,-0.0788,-0.092,-0.0856,-0.0882,-0.1011,-0.1024,-0.1113,-0.118,-0.1205,-0.1289,-0.1349,-0.137,-0.1379,-0.1405,-0.1328,-0.1355,-0.1281,-0.1253,-0.1229,-0.1216,-0.1179,-0.1148,-0.1484,-0.1484,-0.1485,0,0,-0.0669,-0.0752,-0.0744,-0.0813,-0.0869,-0.0867,-0.1031,-0.1023,-0.1023,-0.1205,-0.1183,-0.1246,-0.1324,-0.1271,-0.1252,-0.1316,-0.1129,-0.1212,-0.1192,-0.1192,-0.1162,-0.113,-0.1102,-0.1475,-0.1477,-0.1478,0,0,-0.0455,-0.0518,-0.0472,-0.0525,-0.0608,-0.0695,-0.0683,-0.0795,-0.0844,-0.0825,-0.0962,-0.0965,-0.0995,-0.1045,-0.1074,-0.088,-0.0982,-0.0884,-0.0736,-0.0698,-0.0672,-0.0649,-0.0578,-0.0551,-0.0871,-0.0871,-0.087,0,-0.0298,-0.0302,-0.0435,-0.0418,-0.0445,-0.061,-0.0564,-0.0609,-0.0695,-0.071,-0.0781,-0.0824,-0.0888,-0.0848,-0.0801,-0.082,-0.0811,-0.0871,-0.0665,-0.0643,-0.0624,-0.0558,-0.0531,-0.0858,-0.086,-0.0861,-0.0862,0,-0.0105,-0.0105,-0.0058,-0.0138,-0.0159,-0.0127,-0.0256,-0.0262,-0.0349,-0.0428,-0.0407,-0.049,-0.0535,-0.0533,-0.0618,-0.0506,-0.0543,-0.0637,-0.0762,-0.0577,-0.0518,-0.0494,-0.084,-0.0845,-0.0848,-0.0852,0,0,0.0249,0.0094,0.0114,0.0076,-0.0028,-0.0031,-0.0007,-0.0052,-0.0053,-0.0108,-0.0091,-0.0114,-0.0202,-0.0235,-0.0328,-0.0295,-0.0134,-0.0394,-0.0398,-0.0341,-0.0015,0.0059,0.009,-0.0204,-0.02,-0.0197,-0.0008,0,0.0445,0.0478,0.0358,0.0421,0.042,0.0262,0.0282,0.0221,0.0147,0.0134,0.0051,0.0038,-0.0078,-0.0099,-0.0074,-0.0159,-0.007,-0.0175,-0.0189,-0.0188,-0.0161,0.0121,0.0198,0.0381,0.0015,0.0018,0.0021,0,0.0678,0.0636,0.07,0.0592,0.0586,0.0608,0.0557,0.0547,0.0473,0.0417,0.0381,0.0273,0.0288,0.0167,0.0186,0.0118,0.0104,0.0062,0.0066,0.0062,-0.007,0.0127,0.0436,0.0465,0.0056,0.0053,0.0051,0,0.0933,0.0892,0.0924,0.0896,0.077,0.0789,0.0738,0.0658,0.0639,0.0594,0.0581,0.0539,0.0517,0.0486,0.037,0.0293,0.0404,0.0273,0.0358,0.0362,0.0391,0.0391,0.0705,0.038,0.0379,0.0379,0.0378,0,0.1165,0.1211,0.1037,0.1058,0.1104,0.0965,0.1015,0.0947,0.0878,0.0882,0.0742,0.075,0.0594,0.0584,0.0493,0.0524,0.0514,0.0469,0.0445,0.0483,0.049,0.0474,0.046,0.0386,0.0384,0.0383,0.0381,0,0.1459,0.1344,0.1369,0.1248,0.1218,0.1258,0.1154,0.1168,0.1084,0.1092,0.1085,0.0954,0.0935,0.0815,0.0769,0.0707,0.0772,0.0721,0.0798,0.0782,0.0875,0.0869,0.1192,0.1228,0.0879,0.0882,0.0885,0,0.1616,0.1647,0.1529,0.1522,0.1477,0.1467,0.1447,0.1311,0.1296,0.1214,0.1238,0.1207,0.1176,0.1153,0.1053,0.1017,0.0965,0.1081,0.0959,0.0997,0.0969,0.097,0.0973,0.1108,0.1113,0.1116,0.1119,0,0.1907,0.1848,0.1825,0.1782,0.1762,0.1721,0.1671,0.1674,0.1523,0.1513,0.1492,0.1467,0.1419,0.1391,0.1338,0.1283,0.1178,0.1158,0.1176,0.1217,0.1261,0.124,0.0871,0.1152,0.1149,0.1146,0.1145,0.1143,0.2137,0.2158,0.2079,0.2057,0.2005,0.1963,0.197,0.1887,0.1867,0.1818,0.1738,0.1729,0.1653,0.157,0.1525,0.1515,0.1453,0.1479,0.1486,0.1495,0.1516,0.1261,0.1504,0.1503,0.1502,0.1501,0.15,0,0.2423,0.2364,0.2345,0.2281,0.2264,0.2164,0.2104,0.2097,0.209,0.2029,0.2001,0.1977,0.1948,0.1847,0.1807,0.1819,0.177,0.1814,0.1813,0.1802,0.1572,0.1562,0.1855,0.1855,0.1855,0.1855,0.1854,0.1854,0.257,0.26,0.2532,0.2536,0.2475,0.2465,0.244,0.2399,0.2349,0.2329,0.2305,0.2239,0.2161,0.2115,0.2084,0.2055,0.2048,0.2109,0.2064,0.1852,0.1818,0.1786,0.1775,0.2108,0.2108,0.2294,0.2296,0.2297]},{"header":{"parameterUnit":"m.s-1","parameterCategory":1,"la1":30.2991,"la2":30.254,"lo1":-89.0895,"lo2":-89.0444,"dy":0.0017,"dx":0.0017,"nx":28,"ny":28,"refTime":"2023-05-23T21:00:00:Z","depth":0,"parameterNumber":3,"parameterNumberName":"V-component_of_WINDS"},"data":[0,0,0,0,0,0,0,0,0,0,0,0,0,0,0,0,0,0,0,0,0,0,0,0,0,0,0,0,0,0,0,0,0,0,0,0,0,0,0,0,0,0,0,0,0,0,0,0,0,0,0,0,0,0,0,0,0,0,-0.8529,-0.8531,0,-0.8694,-0.8695,-0.8697,-0.8838,-0.884,-0.8841,-0.8843,-0.9008,-0.9011,-0.9014,0,0,0,0,0,0,0,0,0,0,0,0,0,-0.8334,-0.8337,-0.8529,-0.8531,-0.8533,-0.8693,-0.8695,-0.8698,-0.8838,-0.884,-0.8841,-0.8843,-0.9007,-0.9011,-0.9014,0,0,0,0,0,0,0,0,0,0,0,0,0,-0.845,-0.8338,-0.8529,-0.8622,-0.8632,-0.8693,-0.8696,-0.8698,-0.8837,-0.884,-0.8842,-0.8844,-0.9006,-0.901,-0.9015,-0.8995,0,0,-0.9028,-0.903,0,0,0,0,0,0,0,0,-0.8443,-0.8457,-0.8607,-0.8616,-0.8627,-0.8748,-0.8688,-0.8798,-0.8837,-0.8759,-0.8843,-0.8845,-0.8919,-0.8931,-0.8957,-0.9002,-0.9009,-0.9028,-0.9031,-0.9033,-0.9034,0,0,0,0,0,0,0,-0.8435,-0.8451,-0.8594,-0.8609,-0.8621,-0.8655,-0.8674,-0.8709,-0.8824,-0.8766,-0.8777,-0.8795,-0.8926,-0.8952,-0.8961,-0.9012,-0.9028,-0.9032,-0.9035,-0.9037,-0.9051,-0.9048,0,0,0,0,0,0,-0.8413,-0.8443,-0.8589,-0.8599,-0.8539,-0.8657,-0.8678,-0.8707,-0.8824,-0.8844,-0.8792,-0.8801,-0.8943,-0.8956,-0.8968,-0.8954,-0.9033,-0.9037,-0.904,-0.9053,-0.905,-0.9048,0,0,0,0,0,0,-0.8408,-0.8425,-0.8582,-0.8524,-0.8547,-0.8658,-0.8688,-0.8709,-0.8736,-0.8844,-0.8865,-0.8799,-0.8946,-0.8962,-0.8987,-0.8961,-0.9039,-0.9043,-0.9056,-0.9052,-0.9049,-0.8924,0,0,0,0,0,0,-0.8402,-0.8422,-0.8416,-0.8523,-0.8549,-0.8599,-0.8687,-0.871,-0.8743,-0.8755,-0.8855,-0.8874,-0.8949,-0.898,-0.8992,-0.8969,-0.9047,-0.9058,-0.9054,-0.905,-0.8931,-0.8916,-0.8904,0,0,0,0,0,-0.8395,-0.8374,-0.8415,-0.8432,-0.8545,-0.8598,-0.8613,-0.87,-0.874,-0.8735,-0.8805,-0.8871,-0.8962,-0.8981,-0.8996,-0.8974,-0.906,-0.9055,-0.905,-0.8937,-0.8919,-0.8904,0,0,0,0,0,0,-0.826,-0.8389,-0.8437,-0.845,-0.8512,-0.8621,-0.8618,-0.8679,-0.873,-0.8739,-0.8844,-0.8865,-0.8879,-0.8929,-0.8949,-0.8961,-0.902,-0.9017,-0.8929,-0.8913,-0.89,-0.8888,-0.905,0,0,0,0,0,-0.8232,-0.8265,-0.8376,-0.8377,-0.8406,-0.8505,-0.8532,-0.8594,-0.8662,-0.8688,-0.876,-0.8823,-0.8866,-0.8892,-0.8937,-0.8938,-0.8962,-0.893,-0.8916,-0.8905,-0.8902,-0.8907,-0.8895,-0.9031,-0.9031,-0.9031,0,0,-0.8174,-0.8249,-0.8264,-0.8352,-0.8407,-0.8439,-0.8527,-0.8556,-0.8581,-0.8693,-0.8722,-0.8776,-0.8853,-0.8866,-0.8876,-0.8908,-0.887,-0.8898,-0.8888,-0.8892,-0.8901,-0.8888,-0.8876,-0.9027,-0.9028,-0.9029,0,0,-0.8086,-0.8145,-0.8154,-0.8207,-0.829,-0.8357,-0.8358,-0.8458,-0.8499,-0.853,-0.8615,-0.8645,-0.8716,-0.8768,-0.8804,-0.8734,-0.8797,-0.8745,-0.8677,-0.8681,-0.867,-0.8661,-0.8638,-0.8628,-0.8742,-0.8742,-0.8741,0,-0.8004,-0.8056,-0.815,-0.8175,-0.8211,-0.8314,-0.8323,-0.837,-0.8462,-0.8485,-0.852,-0.8612,-0.8671,-0.8699,-0.8681,-0.8706,-0.8712,-0.8736,-0.8664,-0.8656,-0.8649,-0.8628,-0.8619,-0.8735,-0.8736,-0.8736,-0.8737,0,-0.7952,-0.7986,-0.7982,-0.8071,-0.8106,-0.8122,-0.8218,-0.8242,-0.83,-0.8363,-0.8393,-0.8467,-0.853,-0.8541,-0.8597,-0.8576,-0.8594,-0.8645,-0.8707,-0.8628,-0.861,-0.8603,-0.8725,-0.8728,-0.873,-0.8731,0,0,-0.7786,-0.7925,-0.7922,-0.7964,-0.8062,-0.809,-0.811,-0.8173,-0.8192,-0.8252,-0.8272,-0.833,-0.8378,-0.8418,-0.8481,-0.8484,-0.8426,-0.8535,-0.8539,-0.8513,-0.8408,-0.8371,-0.836,-0.8467,-0.8466,-0.8465,-0.8403,0,-0.7715,-0.776,-0.7844,-0.7861,-0.7895,-0.7992,-0.801,-0.8072,-0.813,-0.8167,-0.8231,-0.8271,-0.833,-0.8355,-0.8362,-0.8431,-0.8406,-0.8437,-0.8488,-0.8488,-0.8467,-0.8351,-0.8311,-0.8249,-0.8396,-0.8395,-0.8394,0,-0.7639,-0.7694,-0.7715,-0.7812,-0.7829,-0.7844,-0.7908,-0.7941,-0.8012,-0.8055,-0.8099,-0.8168,-0.8195,-0.8249,-0.8288,-0.8307,-0.8332,-0.8369,-0.8368,-0.8378,-0.8438,-0.8359,-0.8231,-0.8222,-0.8384,-0.8384,-0.8385,0,-0.7518,-0.7597,-0.7621,-0.7653,-0.7765,-0.7773,-0.782,-0.7895,-0.7927,-0.7982,-0.8004,-0.806,-0.8092,-0.8134,-0.8216,-0.8248,-0.8246,-0.8307,-0.8282,-0.828,-0.8279,-0.8279,-0.8155,-0.8292,-0.8292,-0.8292,-0.8292,0,-0.7432,-0.7441,-0.7568,-0.7582,-0.7595,-0.7691,-0.7701,-0.7757,-0.7822,-0.7849,-0.7935,-0.7958,-0.8065,-0.81,-0.8164,-0.8187,-0.82,-0.8235,-0.8253,-0.8229,-0.8224,-0.8248,-0.8256,-0.829,-0.829,-0.8291,-0.8291,0,-0.7301,-0.7385,-0.7418,-0.7521,-0.7547,-0.7553,-0.7641,-0.7659,-0.7721,-0.7754,-0.7767,-0.7866,-0.7912,-0.7998,-0.8067,-0.8111,-0.812,-0.8149,-0.8096,-0.8107,-0.8078,-0.808,-0.7968,-0.7959,-0.8098,-0.8096,-0.8095,0,-0.7242,-0.7251,-0.7356,-0.738,-0.7425,-0.7462,-0.7496,-0.7589,-0.762,-0.7702,-0.7709,-0.7762,-0.7809,-0.7878,-0.7956,-0.8009,-0.8041,-0.7998,-0.805,-0.8026,-0.8043,-0.8042,-0.8044,-0.7987,-0.7985,-0.7983,-0.7982,0,-0.7128,-0.7169,-0.7215,-0.7274,-0.7311,-0.7362,-0.7418,-0.7432,-0.7539,-0.7569,-0.7617,-0.7653,-0.7725,-0.7776,-0.7841,-0.7889,-0.7953,-0.7965,-0.7962,-0.7939,-0.7909,-0.7927,-0.8066,-0.7968,-0.7969,-0.797,-0.7971,-0.7971,-0.7033,-0.7046,-0.7122,-0.717,-0.7221,-0.7271,-0.7292,-0.7358,-0.74,-0.7466,-0.7518,-0.7562,-0.7633,-0.7727,-0.7771,-0.7806,-0.7837,-0.7833,-0.7832,-0.783,-0.7821,-0.7901,-0.7818,-0.7819,-0.7819,-0.782,-0.782,0,-0.6926,-0.6979,-0.7022,-0.7097,-0.7134,-0.719,-0.7254,-0.7281,-0.7319,-0.738,-0.7425,-0.748,-0.753,-0.7611,-0.7667,-0.768,-0.7711,-0.7692,-0.7693,-0.7704,-0.779,-0.7787,-0.7666,-0.7666,-0.7666,-0.7666,-0.7666,-0.7666,-0.6875,-0.6901,-0.6951,-0.7003,-0.7056,-0.7101,-0.7133,-0.7179,-0.7228,-0.7286,-0.7328,-0.738,-0.745,-0.7512,-0.756,-0.7582,-0.76,-0.7572,-0.7603,-0.7683,-0.7697,-0.7711,-0.771,-0.7574,-0.7574,-0.7515,-0.7515,-0.7514]}]]